Flag for Marshall Islands Weather past 2 weeks in Majuro, Marshall Islands

Now
82 °F

Sprinkles. Cloudy.


Feels Like: 90 °F
Forecast: 81 / 85 °F
Wind: 9 mph from East

Location: Majuro Atoll

Current Time: Mar 6, 2015 at 4:49:17 PM

Latest Report: Mar 6, 2015 at 3:52 PM


Visibility: 14 mi

Pressure: 29.59 "Hg

Humidity: 85%

Dew point: 77 °F

Location of MajuroLocation

Historic Weather in Majuro — Graph

°F

Majuro temperature yesterday

Maximum temperature yesterday: 85 °F (at 11:50 AM)
Minimum temperature yesterday: 78 °F (at 7:52 PM)
Average temperature yesterday: 81 °F

Past Weeks' High & Low Weather Summary

 TemperatureHumidityPressure
High88 °F (Mar 3, 1:53 PM)94% (Feb 23, 5:53 AM)29.89 "Hg (Feb 23, 5:53 AM)
Low76 °F (Feb 23, 5:53 AM)62% (Feb 22, 10:50 AM)29.60 "Hg (Mar 6, 2:50 PM)
Average83 °F81%29.77 "Hg
* Reported Feb 19 2:51 PM — Mar 6 2:50 PM, Majuro, Weather by CustomWeather, © 2015

Note: Actual official high and low records may vary slightly from our data, if they occured in-between our weather recording intervals... More about our weather records

Advertising

Majuro weather history for previous 24 hours

 ConditionsComfort  
Time TempWeatherWind HumidityBarometerVisibility
2:50 PM
Fri, Mar 6
83 °FSprinkles. Cloudy.10 mph82%29.60 "Hg12 mi
1:52 PM85 °FCloudy.13 mph78%29.62 "Hg15 mi
12:51 PM86 °FCloudy.10 mph76%29.66 "Hg15 mi
11:54 AM86 °FCloudy.13 mph77%29.68 "Hg15 mi
10:51 AM86 °FCloudy.14 mph76%29.70 "Hg15 mi
9:52 AM84 °FCloudy.13 mph80%29.70 "Hg15 mi
8:52 AM83 °FCloudy.10 mph79%29.70 "Hg15 mi
7:50 AM82 °FMore clouds than sun.14 mph83%29.68 "Hg15 mi
6:52 AM81 °FPartly cloudy.13 mph85%29.65 "Hg15 mi
5:54 AM80 °FPassing clouds.12 mph85%29.63 "Hg15 mi
4:57 AM81 °FPartly cloudy.10 mph85%29.62 "Hg15 mi
3:56 AM81 °FMostly cloudy.13 mph86%29.62 "Hg15 mi
2:52 AM81 °FOvercast.9 mph87%29.64 "Hg15 mi
1:51 AM81 °FPartly cloudy.14 mph88%29.67 "Hg15 mi
11:55 PM
Thu, Mar 5
80 °FMostly cloudy.16 mph89%29.71 "Hg15 mi
10:55 PM78 °FOvercast.13 mph91%29.72 "Hg15 mi
9:50 PM79 °FOvercast.15 mph91%29.72 "Hg15 mi
8:51 PM79 °FOvercast.12 mph89%29.71 "Hg15 mi
7:52 PM78 °FLight rain. Overcast.12 mph94%29.69 "Hg14 mi
6:51 PM79 °FSprinkles. Cloudy.17 mph93%29.65 "Hg10 mi
5:54 PM79 °FSprinkles. Cloudy.13 mph88%29.64 "Hg14 mi
4:51 PM80 °FSprinkles. Cloudy.13 mph90%29.64 "Hg14 mi
Weather by CustomWeather, © 2015

See weather overviewHow to use our weather pages